Location: Vancouver
(49.2500°N, 123.1330°W)
Time: 06:05:59
(UTC-07:00)

BREEZE-M DEB (TANK) - Visible Passes

Search period start: 28 August 2014 00:00
Search period end: 07 September 2014 00:00
Orbit: 275 x 13667 km, 49.6° (Epoch: 26 August)

Date Brightness Start Highest point End Pass type
(mag) Time Alt. Az. Time Alt. Az. Time Alt. Az.
28 Aug 9.4 00:00:00 21° WSW 23:59:45 21° WSW 00:36:09 10° WSW visible
28 Aug 9.1 19:50:59 10° WNW 20:36:44 56° WSW 22:21:15 10° S visible
29 Aug 9.3 21:34:22 10° WNW 22:19:59 35° W 23:44:21 10° SW visible
30 Aug 9.1 18:41:02 10° WNW 19:21:16 67° SW 21:13:09 10° S visible
30 Aug 9.7 23:27:10 10° WNW 23:55:50 16° W 00:36:08 10° W visible
31 Aug 9.2 20:22:41 10° WNW 21:08:19 46° WSW 22:44:45 10° SSW visible
01 Sep 9.5 22:08:21 10° WNW 22:48:11 25° W 23:56:08 10° SW visible
02 Sep 9.2 19:12:02 10° WNW 19:54:20 57° WSW 21:39:52 10° S visible
03 Sep 9.4 20:54:45 10° WNW 21:38:08 36° WSW 23:03:28 10° SW visible
04 Sep 8.9 18:01:58 10° WNW 18:38:35 67° SW 20:30:50 10° SSE visible
04 Sep 9.8 22:46:01 10° WNW 23:14:49 16° W 23:56:54 10° WSW visible
05 Sep 9.3 19:43:03 10° WNW 20:25:44 47° WSW 22:03:04 10° SSW visible
06 Sep 9.6 21:27:50 10° WNW 22:06:20 26° W 23:15:20 10° SW visible
